Flag for Germany Weather past 2 weeks in Wittenberg, Saxony-Anhalt, Germany

Now
32 °F

Light snow. Partly cloudy.


Feels Like: 32 °F
Forecast: 21 / 29 °F
Wind: 2 mph from Northwest

Location: Holzdorf

Current Time: Dec 26, 2014 at 7:45:03 AM

Latest Report: Dec 26, 2014 at 6:20 AM


Visibility: 4 mi

Pressure: 30.27 "Hg

Humidity: 100%

Dew point: 32 °F

Location of WittenbergLocation

Historic Weather in Wittenberg — Graph

°F

Wittenberg temperature yesterday

Maximum temperature yesterday: 43 °F (at 12:20 AM)
Minimum temperature yesterday: 36 °F (at 10:20 PM)
Average temperature yesterday: 40 °F

Past Weeks' High & Low Weather Summary

 TemperatureHumidityPressure
High55 °F (Dec 19, 1:20 AM)100% (Dec 14, 3:20 AM)30.27 "Hg (Dec 14, 3:20 AM)
Low32 °F (Dec 17, 6:20 AM)62% (Dec 12, 7:20 PM)29.45 "Hg (Dec 12, 6:20 PM)
Average43 °F83%29.88 "Hg
* Reported Dec 11 6:20 AM — Dec 26 6:20 AM, Wittenberg, Weather by CustomWeather, © 2014

Note: Actual official high and low records may vary slightly from our data, if they occured in-between our weather recording intervals... More about our weather records

Advertising

Wittenberg weather history for previous 24 hours

 ConditionsComfort  
Time TempWeatherWind HumidityBarometerVisibility
6:20 AM
Dec 26
32 °FLight snow. Partly cloudy.2 mph100%30.27 "Hg4 mi
5:46 AM32 °FLight snow. Partly cloudy.2 mph100%30.27 "Hg4 mi
5:20 AM32 °FLight snow. Passing clouds.3 mph100%30.27 "Hg4 mi
4:20 AM34 °FPartly cloudy.5 mph93%30.24 "HgN/A
3:20 AM34 °FPassing clouds.6 mph93%30.24 "HgN/A
2:20 AM34 °FPassing clouds.7 mph93%30.24 "HgN/A
1:20 AM34 °FPartly cloudy.9 mph93%30.18 "HgN/A
12:20 AM36 °FPartly cloudy.12 mph87%30.15 "HgN/A
11:20 PM
Dec 25
36 °FLight rain. Partly cloudy.13 mph93%30.12 "Hg6 mi
10:20 PM36 °FLight rain. Passing clouds.15 mph93%30.07 "Hg4 mi
9:20 PM39 °FLight rain. Partly cloudy.21 mph81%30.04 "HgN/A
8:20 PM41 °FPartly cloudy.20 mph66%30.04 "HgN/A
7:20 PM39 °FPassing clouds.16 mph70%30.04 "HgN/A
6:20 PM39 °FPassing clouds.12 mph70%30.04 "HgN/A
5:20 PM41 °FPassing clouds.18 mph66%30.01 "HgN/A
4:20 PM41 °FPassing clouds.20 mph76%30.01 "HgN/A
3:20 PM41 °FBroken clouds.22 mph76%30.01 "HgN/A
2:20 PM41 °FBroken clouds.24 mph87%30.01 "HgN/A
1:20 PM43 °FSprinkles. Partly sunny.18 mph71%30.01 "HgN/A
12:20 PM43 °FPartly sunny.22 mph71%30.01 "HgN/A
11:20 AM43 °FPartly sunny.22 mph71%30.01 "HgN/A
10:20 AM41 °FPartly sunny.17 mph70%30.01 "HgN/A
9:20 AM41 °FPartly sunny.15 mph70%30.01 "HgN/A
8:20 AM39 °FPartly sunny.15 mph75%30.01 "HgN/A
7:20 AM39 °FPassing clouds.15 mph75%30.01 "HgN/A
Weather by CustomWeather, © 2014

See weather overviewHow to use our weather pages